[Iaude] MPEC J59: 2024 JF1 [a=0.95,e=0.16,i=1.8,H=27.9]
    mpec at cfa.harvard.edu 
    mpec at cfa.harvard.edu
       
    Sat May  4 03:38:33 EDT 2024
    
    
  
M.P.E.C. 2024-J59                                   Issued 2024 May 4, 07:37 UT
     The Minor Planet Electronic Circulars contain information on unusual
         minor planets, routine data on comets and natural satellites,
         and occasional editorial announcements.  They are published
    on behalf of Division F of the International Astronomical Union by the
          Minor Planet Center, Smithsonian Astrophysical Observatory,
                          Cambridge, MA 02138, U.S.A.
			  
             Prepared using the Tamkin Foundation Computer Network
                              MPC at CFA.HARVARD.EDU
            URL https://www.minorplanetcenter.net/    ISSN 1523-6714
                                    2024 JF1                                    
Observations:
     K24J01F*1C2024 05 02.45591617 10 11.093+13 24 55.12         20.53GVEJ059G96
     K24J01F 1C2024 05 02.45969317 10 05.340+13 24 18.72         20.28GVEJ059G96
     K24J01F 1C2024 05 02.46345617 09 59.468+13 23 41.32         20.64GVEJ059G96
     K24J01F 1C2024 05 02.46723617 09 53.694+13 23 05.21         20.78GVEJ059G96
     K24J01F 1C2024 05 02.48143217 09 32.101+13 20 46.61         20.42GVEJ059G96
     K24J01F 1C2024 05 02.48173117 09 31.662+13 20 44.02         21.73GVEJ059G96
     K24J01F 1C2024 05 02.48233017 09 30.733+13 20 38.15         20.97GVEJ059G96
     K24J01F KC2024 05 03.29244816 52 08.339+11 13 31.98         20.61GVEJ059I52
     K24J01F KC2024 05 03.29374416 52 06.510+11 13 20.32               VEJ059I52
     K24J01F KC2024 05 03.29446416 52 05.488+11 13 14.09         20.67GVEJ059I52
     K24J01F KC2024 05 03.29518316 52 04.523+11 13 07.72         20.70GVEJ059I52
     K24J01F KC2024 05 04.28865216 31 51.91 +08 42 47.9          21.5 GVEJ059H21
     K24J01F KC2024 05 04.29732716 31 40.75 +08 41 32.6          21.1 GVEJ059H21
Observer details:
G96 Mt. Lemmon Survey.  Observer H. Groeller.  Measurers T. Beuden, V. F.
    Carvajal, D. Fay, J. B. Fazekas, D. C. Fuls, A. R. Gibbs, A. D. Grauer, H.
    Groeller, J. K. Hogan, R. A. Kowalski, S. M. Larson, G. J. Leonard, D.
    Rankin, R. L. Seaman, F. C. Shelly, K. W. Wierzchos.  1.5-m reflector +
    10K CCD.
H21 Astronomical Research Observatory, Westfield.  Observer R. Holmes.
    Measurers T. Linder, R. Holmes, L. Horn.  0.76-m f/3.0 astrograph + CCD.
I52 Steward Observatory, Mt. Lemmon Station.  Observer V. F. Carvajal.
    Measurers T. Beuden, V. F. Carvajal, D. Fay, J. B. Fazekas, D. C. Fuls, A.
    R. Gibbs, A. D. Grauer, H. Groeller, J. K. Hogan, R. A. Kowalski, S. M.
    Larson, G. J. Leonard, D. Rankin, R. L. Seaman, F. C. Shelly, K. W.
    Wierzchos.  1.0-m prime focus + CCD.
Orbital elements:
2024 JF1                                                 Earth MOID = 0.0139 AU
Epoch 2024 Mar. 31.0 TT = JDT 2460400.5                 MPC                     
M  74.91662              (2000.0)            P               Q                  
n   1.06217229     Peri.   33.99241     -0.12850053     -0.99129480             
a   0.9513480      Node    63.40539     +0.90259540     -0.12888391             
e   0.1585859      Incl.    1.83765     +0.41086392     -0.02689913             
P   0.93           H   27.90          G   0.15           U   7                  
Residuals in seconds of arc
240502 G96  0.1+  0.6+    240502 G96  0.4+  0.1-    240503 I52  0.4+  0.1+
240502 G96  0.7+  0.7+    240502 G96  0.1+  0.1-    240504 H21  0.1-  0.2-
240502 G96  0.9-  0.3-    240503 I52  0.1+  0.2-    240504 H21  0.1+  0.2+
240502 G96  0.8-  0.2+    240503 I52  0.1-  0.2-
240502 G96  0.1+  0.4-    240503 I52  0.2-  0.0
Ephemeris:
2024 JF1                 a,e,i = 0.95, 0.16, 2                   q = 0.8005
Date    TT    R. A. (2000) Decl.     Delta      r    Elong.  Phase     V
2024 04 04    23 47 02.9 +23 34 08   0.05873 0.9467    23.9   154.6    31.0
...
2024 04 19    22 07 05.0 +28 10 59   0.02900 0.9877    54.3   124.4    25.4
...
2024 04 27    19 32 29.8 +25 34 06   0.01917 1.0080    94.0    84.9    22.3
...
2024 05 03    16 58 10.9 +12 02 00   0.01959 1.0223   136.2    43.0    21.1
2024 05 04    16 37 25.6 +09 29 08   0.02045 1.0246   142.3    37.0    21.0
2024 05 05    16 18 43.4 +07 05 09   0.02151 1.0268   147.8    31.6    21.0
...
2024 05 11    15 02 34.5 -03 18 51   0.03071 1.0397   165.3    14.3    21.2
...
2024 05 19    14 17 05.1 -09 55 24   0.04709 1.0551   156.9    22.1    22.4
...
2024 06 03    13 51 55.6 -15 06 12   0.08331 1.0783   138.6    38.4    24.2
A. U. Tomatic                (C) Copyright 2024 MPC           M.P.E.C. 2024-J59
    
    
More information about the Iaude
mailing list